User: anonymous   Login
Location: Lower Kingswood
(51.2667°N, 0.2167°W)
Time: 12:16:57
(UTC+00:00)
Language:

NOSS 2-2 (E) - Orbit

View from above orbital plane
View from above orbital plane
View from above satellite
View from above satellite

Ground track
Ground track

The orbit data is extracted from the following two-line orbital elements,

1 21809U 91076E   24035.65013001 0.00008153  00000-0  83436-3 0    00
2 21809  63.3108 282.7667 0902838  56.6643 303.2942 13.47791597    07
Epoch (UTC): 04 February 2024 15:36:11
Eccentricity: 0.0902838
inclination: 63.3108°
perigee height: 407 km
apogee height: 1754 km
right ascension of ascending node: 282.7667°
argument of perigee: 56.6643°
revolutions per day: 13.47791597
mean anomaly at epoch: 303.2942°
orbit number at epoch: 0

The dashed part of the orbit path shows where the satellite is in the earth's shadow,  

DLR